User: anonymous   Login
Location: Sun City Center
(27.6996°N, 82.3528°W)
Time: 12:28:57
(UTC-05:00)
Language:

Cosmos 2084 Rocket - Orbit

View from above orbital plane
View from above orbital plane
View from above satellite
View from above satellite

Ground track
Ground track

The orbit data is extracted from the following two-line orbital elements,

1 20666U 90055D   14352.85651444  .00003442  00000-0  35168-3 0  3747
2 20666 062.7887 307.9942 0078422 013.1123 347.1983 14.90242338325267
Epoch (UTC): 18 December 2014 20:33:22
Eccentricity: 0.0078422
inclination: 62.7887°
perigee height: 542 km
apogee height: 652 km
right ascension of ascending node: 307.9942°
argument of perigee: 13.1123°
revolutions per day: 14.90242338
mean anomaly at epoch: 347.1983°
orbit number at epoch: 32526

The dashed part of the orbit path shows where the satellite is in the earth's shadow,  

DLR